Location: Laterina
(43.5167°N, 11.7167°E)
Time: 16:08:56
(UTC+00:00)

HJ-1C - Pass Details

Date: 24 September 2020
Orbit: 432 x 443 km, 97.1° (Epoch: 26 October)

Event Time Altitude Azimuth Distance (km) Brightness Sun altitude
Rises 17:37:56 0° 144° (SE) 2,397 6.7 -6.6°
Reaches altitude 10° 17:40:05 10° 133° (SE) 1,536 5.6 -7.0°
Maximum altitude 17:42:58 29° 71° (ENE) 837 4.3 -7.5°
Drops below altitude 10° 17:45:52 10° 10° (N) 1,552 6.1 -8.0°
Sets 17:48:04 0° 359° (N) 2,428 7.2 -8.4°
